Tracking 19475 objects as of 18-Jan-2019
HD Live streaming from Space Station
objects crossing your sky now

SCISAT 1

Track SCISAT 1 now!
10-day predictions
SCISAT 1 is classified as:


NORAD ID: 27858
Int'l Code: 2003-036A
Perigee: 640.6 km
Apogee: 649.8 km
Inclination: 73.9 °
Period: 97.5 minutes
Semi major axis: 7016 km
RCS: 0.7229 m2 (medium)
Launch date: August 13, 2003
Source: Canada (CA)
Launch site: Pegasus launched from Western Range Air Space (WRAS)
aabbcc
Your satellite tracking list
Your tracking list is empty




NASA's NSSDC Master Catalog

Two Line Element Set (TLE):
1 27858U 03036A   19018.43260723  .00000031  00000-0  93945-5 0  9997
2 27858  73.9338 123.3057 0006525  89.8237 270.3685 14.77231037831458
Source of the keplerian elements: AFSPC